Weather History for Petersburg, WV

Change the Weather History Date:

Sunday, February 2, 2014

  Actual Average (KEKN) Record (KEKN)
Temperature  
Mean Temperature 49 °F 30 °F  
Max Temperature 70 °F 40 °F 68 °F (1989)
Min Temperature 30 °F 20 °F -5 °F (1976)
Degree Days  
Heating Degree Days 16 35  
Month to date heating degree days 70  
Since 1 July heating degree days 3471  
Cooling Degree Days 0 0  
Month to date cooling degree days 0  
Year to date cooling degree days 0  
Moisture  
Dew Point 38 °F    
Average Humidity 70    
Maximum Humidity 87    
Minimum Humidity 48    
Precipitation  
Precipitation 0.02 in 0.11 in 1.09 in (1956)
Month to date precipitation 0.22  
Year to date precipitation 3.45  
Snow  
Snow 0.00 in - - ()
Month to date snowfall  
Since 1 September snowfall  
Snow Depth -    
Sea Level Pressure  
Sea Level Pressure 29.98 in    
Wind  
Wind Speed 2 mph (NW)    
Max Wind Speed 17 mph    
Max Gust Speed 24 mph    
Visibility 10 miles    
Events Rain    
T = Trace of Precipitation, MM = Missing Value Source: NWS Daily Summary

Daily Weather History Graph

Daily Weather History Graph

Search for Another Location

Airport:

Trip Planner

Search our weather history database for the weather conditions in past years. The results will help you decide how hot, cold, wet, or windy it might be!

Date:

Astronomy

Feb. 02, 2014 Rise Set
Actual Time 7:22 AM EST 5:39 PM EST
Civil Twilight 6:54 AM EST 6:07 PM EST
Nautical Twilight 6:22 AM EST 6:38 PM EST
Astronomical Twilight 5:50 AM EST 7:10 PM EST
Moon 8:49 AM EST (2/2) 9:18 PM EST (2/2)
Length of Visible Light 11h 13m
Length of Day
10h 16m
Waxing Crescent, 11% of the Moon is Illuminated
Feb 2
Waxing Crescent
Feb 6
First Quarter
Feb 14
Full
Feb 22
Last Quarter
Mar 1
New

Hourly Weather History & Observations

Time (EST) Temp. Windchill Dew Point Humidity Pressure Visibility Wind Dir Wind Speed Gust Speed Precip Events Conditions
12:15 AM 34.2 °F 30.0 °F 27.7 °F 77% 29.96 in 10.0 mi WNW 4.6 mph - N/A   Clear
12:35 AM 33.1 °F 28.7 °F 26.4 °F 77% 29.97 in 10.0 mi WNW 4.6 mph - N/A   Clear
12:55 AM 32.5 °F 29.3 °F 26.8 °F 79% 29.96 in 10.0 mi West 3.5 mph - N/A   Clear
1:15 AM 32.4 °F - 26.8 °F 80% 29.96 in 10.0 mi Calm Calm - N/A   Clear
1:35 AM 31.8 °F - 25.3 °F 77% 29.96 in 10.0 mi Calm Calm - N/A   Clear
1:55 AM 30.7 °F - 23.7 °F 75% 29.95 in 10.0 mi Calm Calm - N/A   Clear
2:15 AM 30.2 °F - 24.3 °F 79% 29.95 in 10.0 mi Calm Calm - N/A   Scattered Clouds
2:35 AM 30.7 °F - 25.3 °F 80% 29.95 in 10.0 mi Calm Calm - N/A   Scattered Clouds
2:55 AM 31.5 °F - 26.4 °F 82% 29.95 in 10.0 mi Calm Calm - N/A   Mostly Cloudy
3:15 AM 32.2 °F - 27.5 °F 83% 29.94 in 10.0 mi Calm Calm - N/A   Scattered Clouds
3:35 AM 32.7 °F - 28.6 °F 85% 29.94 in 10.0 mi Calm Calm - N/A   Mostly Cloudy
3:55 AM 33.6 °F - 30.0 °F 87% 29.94 in 10.0 mi Calm Calm - N/A   Mostly Cloudy
4:15 AM 34.9 °F - 30.9 °F 85% 29.94 in 10.0 mi Calm Calm - N/A   Mostly Cloudy
4:35 AM - - - N/A% 29.94 in 10.0 mi Calm Calm - N/A   Overcast
4:55 AM 35.8 °F - 31.8 °F 86% 29.94 in 10.0 mi Calm Calm - N/A   Overcast
5:15 AM 36.5 °F - 32.0 °F 84% 29.94 in 10.0 mi Calm Calm - N/A   Overcast
5:35 AM 36.7 °F - 32.2 °F 84% 29.94 in 10.0 mi Calm Calm - N/A   Overcast
5:55 AM 37.2 °F - 32.4 °F 83% 29.94 in 10.0 mi Calm Calm - N/A   Overcast
6:15 AM - - - N/A% 29.95 in 10.0 mi Calm Calm - N/A   Overcast
6:35 AM 37.8 °F - 32.5 °F 81% 29.95 in 10.0 mi Calm Calm - N/A   Overcast
6:55 AM 37.8 °F - 32.5 °F 81% 29.93 in 10.0 mi Calm Calm - N/A   Overcast
7:15 AM 37.8 °F 35.3 °F 32.9 °F 83% 29.94 in 10.0 mi WNW 3.5 mph - N/A   Overcast
7:35 AM 38.3 °F - 32.9 °F 81% 29.95 in 10.0 mi Calm Calm - N/A   Overcast
7:55 AM 39.0 °F - 33.3 °F 80% 29.96 in 10.0 mi Calm Calm - N/A   Overcast
8:15 AM 40.1 °F - 33.8 °F 78% 29.96 in 10.0 mi Calm Calm - N/A   Overcast
8:35 AM 40.3 °F - 33.8 °F 78% 29.98 in 10.0 mi Calm Calm - N/A   Overcast
8:55 AM 41.2 °F - 34.0 °F 76% 30.00 in 10.0 mi Calm Calm - N/A   Overcast
9:15 AM 42.4 °F - 34.9 °F 75% 30.02 in 10.0 mi Calm Calm - N/A   Overcast
9:35 AM 42.8 °F - 34.3 °F 72% 30.01 in 10.0 mi Calm Calm - N/A   Overcast
9:55 AM 46.6 °F - 35.8 °F 66% 30.00 in 10.0 mi East 4.6 mph - N/A   Overcast
10:15 AM 50.0 °F - 34.9 °F 56% 30.00 in 10.0 mi East 3.5 mph - N/A   Overcast
10:35 AM 52.5 °F - 36.7 °F 55% 30.01 in 10.0 mi West 6.9 mph - N/A   Overcast
10:55 AM 49.5 °F - 37.2 °F 63% 30.01 in 10.0 mi Calm Calm - N/A   Overcast
11:15 AM 51.8 °F - 39.2 °F 62% 30.00 in 10.0 mi Calm Calm - N/A   Overcast
11:35 AM 54.0 °F - 38.8 °F 57% 30.00 in 10.0 mi Calm Calm - N/A   Overcast
11:55 AM 54.7 °F - 39.9 °F 58% 30.00 in 10.0 mi Calm Calm - N/A   Overcast
12:15 PM 56.3 °F - 41.0 °F 57% 30.00 in 10.0 mi Calm Calm - N/A   Overcast
12:35 PM 57.2 °F - 40.8 °F 54% 29.98 in 10.0 mi Calm Calm - N/A   Mostly Cloudy
12:55 PM 59.4 °F - 41.9 °F 52% 29.95 in 10.0 mi SE 5.8 mph - N/A   Mostly Cloudy
1:15 PM 61.7 °F - 43.7 °F 52% 29.94 in 10.0 mi Calm Calm - N/A   Mostly Cloudy
1:35 PM 66.2 °F - 47.1 °F 50% 29.92 in 10.0 mi Calm Calm - N/A   Scattered Clouds
1:55 PM 68.7 °F - 48.4 °F 48% 29.91 in 10.0 mi SSW 8.1 mph - N/A   Clear
2:15 PM 68.4 °F - 48.4 °F 49% 29.90 in 10.0 mi SSW 5.8 mph 16.1 mph N/A   Scattered Clouds
2:35 PM 68.2 °F - 48.4 °F 49% 29.91 in 10.0 mi West 6.9 mph 16.1 mph N/A   Scattered Clouds
2:55 PM 66.2 °F - 48.4 °F 53% 29.92 in 10.0 mi WNW 9.2 mph - N/A   Mostly Cloudy
3:15 PM 65.3 °F - 48.6 °F 55% 29.93 in 10.0 mi West 8.1 mph - N/A   Mostly Cloudy
3:35 PM 64.0 °F - 49.1 °F 58% 29.94 in 10.0 mi Calm Calm - N/A   Mostly Cloudy
3:55 PM 63.1 °F - 48.9 °F 60% 29.94 in 10.0 mi West 11.5 mph - N/A   Overcast
4:15 PM 61.7 °F - 49.1 °F 63% 29.95 in 10.0 mi West 8.1 mph - N/A   Mostly Cloudy
4:35 PM 61.2 °F - 48.6 °F 63% 29.97 in 10.0 mi West 5.8 mph - N/A   Mostly Cloudy
4:55 PM 59.9 °F - 48.2 °F 65% 29.97 in 10.0 mi West 4.6 mph - N/A   Overcast
5:15 PM 59.9 °F - 48.0 °F 65% 29.96 in 10.0 mi Calm Calm - N/A   Overcast
5:35 PM 57.7 °F - 47.1 °F 68% 29.96 in 10.0 mi Calm Calm - N/A   Overcast
5:55 PM 58.1 °F - 47.5 °F 68% 29.98 in 10.0 mi North 5.8 mph - N/A   Overcast
6:15 PM 57.4 °F - 46.2 °F 66% 29.99 in 10.0 mi West 3.5 mph - N/A   Overcast
6:35 PM 54.9 °F - 45.9 °F 72% 30.00 in 10.0 mi NW 6.9 mph - N/A   Overcast
6:55 PM 56.8 °F - 46.8 °F 69% 30.02 in 10.0 mi NNW 5.8 mph - N/A   Overcast
7:15 PM 57.0 °F - 47.1 °F 69% 30.02 in 10.0 mi WNW 5.8 mph - N/A   Overcast
7:35 PM 57.4 °F - 47.1 °F 69% 30.03 in 10.0 mi NNW 3.5 mph - N/A   Overcast
7:55 PM 56.5 °F - 45.7 °F 67% 30.04 in 10.0 mi NNE 17.3 mph 23.0 mph N/A   Overcast
8:15 PM 50.9 °F - 41.4 °F 70% 30.05 in 10.0 mi North 11.5 mph 24.2 mph N/A   Overcast
8:35 PM 48.4 °F - 38.8 °F 70% 30.06 in 10.0 mi North 11.5 mph 24.2 mph N/A   Overcast
8:55 PM 48.0 °F - 38.3 °F 69% 30.07 in 10.0 mi NNE 6.9 mph 18.4 mph N/A   Overcast
9:15 PM 47.3 °F - 38.3 °F 71% 30.09 in 10.0 mi NE 9.2 mph - N/A   Overcast
9:35 PM 46.9 °F - 37.6 °F 70% 30.09 in 10.0 mi ENE 5.8 mph - N/A   Overcast
9:55 PM 46.8 °F - 37.9 °F 71% 30.09 in 10.0 mi Calm Calm - N/A   Overcast
10:15 PM 46.2 °F - 38.1 °F 73% 30.09 in 10.0 mi Calm Calm - N/A Rain Light Rain
10:35 PM 45.3 °F - 38.1 °F 76% 30.09 in 10.0 mi Calm Calm - N/A   Overcast
10:55 PM 43.9 °F - 36.3 °F 75% 30.09 in 10.0 mi Calm Calm - N/A   Drizzle
11:15 PM 42.1 °F - 36.5 °F 81% 30.10 in 10.0 mi Calm Calm - N/A   Drizzle
11:35 PM 40.3 °F - 34.0 °F 78% 30.10 in 3.0 mi Calm Calm - 0.02 in Rain Light Rain
11:55 PM 40.6 °F - 35.4 °F 82% 30.09 in 5.0 mi Calm Calm - 0.02 in Rain Light Rain